Content
SEND FEEDBACK

Daily
Averages
Monthly
Summary
Turkmenistan

ASHGABAT, TURKMENISTAN


Home > Asia > Turkmenistan
Elevation: 775 feet     Latitude: 37 58N     Longitude: 058 20E

WEATHER
 
SELECT A DAY
Number of Records: 180,375;   Date Range: 3/15/97 - 9/29/14
 
SHARE

PRINT THIS DATA

[ ← Previous Day ]
WEATHER ALMANAC - AUGUST 25, 2013
[ Next Day → ]
[ °C ]   °F
Weather ElementAverageHighLow
Temperature84.5 °F96.8 °F (2:00 pm)71 °F (5:00 am)
Dewpoint44.6 °F54 °F (5:00 am)35.6 °F (7:00 pm)
Humidity25.5 %47 % (4:00 am)7 % (2:00 pm)
Barometer29.81 in29.86 in (1:00 am)29.75 in (5:00 pm)
Wind Speed10.9 mph22.4 mph (12:00 pm)
Weather ElementAverage
Visibility6.1 mi
Wind DirectionESE (113.2 °)

Weather ElementTotal
Precipitation---
Cooling Degree Days18.9 (Base 65)
Growing Degree Days33.9 (Base 50)
Averaged from 34 records on August 25, 2013
WEATHER CONDITIONS BREAKOUT
WIND DIRECTION BREAKOUT
WEATHER BY HOUR - AUGUST 25, 2013
[ °C ]   °F
Local TimeTemperatureDewpointHumidityBarometerVisibilityWind DirectionWind SpeedGust SpeedPrecipitationEventsConditions
1:00 AM75.2 °F48.2 °F38 %29.86 in6.2 miESE (120°)6.7 mphClear
2:00 AM76.0 °F52.0 °F32 %29.84 in6.0 miSSE (150°)6.7 mph
2:00 AM77.0 °F46.4 °F34 %29.83 in6.2 miSSE (150°)6.7 mphClear
3:00 AM75.2 °F48.2 °F38 %29.83 in6.2 miCalmClear
4:00 AM73.4 °F51.8 °F47 %29.83 in6.2 miESE (110°)4.5 mphClear
4:30 AM73.4 °F50.0 °F44 %29.83 in6.2 miEast (100°)4.5 mphClear
5:00 AM71.0 °F54.0 °F44 %29.83 in6.0 miSouth (190°)2.2 mph
5:00 AM71.6 °F50.0 °F46 %29.83 in3.7 miSouth (190°)2.2 mphClear
5:30 AM73.4 °F50.0 °F44 %29.83 in6.2 miSSE (150°)4.5 mphClear
6:00 AM73.4 °F48.2 °F41 %29.83 in6.2 miSSE (160°)4.5 mphClear
6:30 AM73.4 °F48.2 °F41 %29.83 in6.2 miSE (130°)6.7 mphClear
7:00 AM73.4 °F48.2 °F41 %29.83 in6.2 miSE (140°)4.5 mphClear
8:00 AM77.0 °F53.0 °F32 %29.83 in6.0 miSE (130°)6.7 mph
8:00 AM78.8 °F48.2 °F34 %29.86 in6.2 miSE (130°)6.7 mphClear
9:00 AM86.0 °F48.2 °F27 %29.86 in6.2 miESE (110°)8.9 mphClear
10:00 AM87.8 °F46.4 °F24 %29.86 in6.2 miEast (100°)17.9 mphClear
11:00 AM93.2 °F41.0 °F16 %29.86 in6.2 miEast (90°)20.1 mph
11:00 AM91.0 °F46.0 °F12 %29.83 in6.0 miEast (90°)20.1 mph
12:00 PM93.2 °F39.2 °F15 %29.83 in6.2 miEast (90°)22.4 mphClear
1:00 PM95.0 °F41.0 °F15 %29.83 in6.2 miEast (100°)20.1 mphClear
2:00 PM96.0 °F39.0 °F7 %29.79 in6.0 miEast (90°)22.4 mph
2:00 PM96.8 °F41.0 °F15 %29.80 in6.2 miEast (90°)20.1 mphClear
3:00 PM96.8 °F41.0 °F15 %29.80 in6.2 miEast (100°)17.9 mphClear
4:00 PM96.8 °F39.2 °F14 %29.77 in6.2 miEast (100°)17.9 mphClear
5:00 PM96.8 °F37.4 °F13 %29.77 in6.2 miEast (100°)15.7 mphClear
5:00 PM95.0 °F44.0 °F10 %29.75 in6.0 miEast (100°)15.7 mph
6:00 PM95.0 °F37.4 °F13 %29.77 in6.2 miEast (100°)15.7 mphClear
7:00 PM93.2 °F35.6 °F13 %29.77 in6.2 miEast (100°)13.4 mphClear
8:00 PM89.0 °F44.0 °F12 %29.75 in6.0 miEast (100°)8.9 mph
8:00 PM89.6 °F39.2 °F17 %29.77 in6.2 miEast (100°)8.9 mphClear
9:00 PM86.0 °F37.4 °F18 %29.77 in6.2 miEast (100°)6.7 mphClear
10:00 PM86.0 °F39.2 °F19 %29.77 in6.2 miESE (110°)11.2 mphClear
11:00 PM83.0 °F44.0 °F16 %29.76 in6.0 miESE (120°)8.9 mph
11:00 PM84.2 °F39.2 °F20 %29.77 in6.2 miESE (110°)11.2 mphClear
Hourly data recorded from UTAA, located miles away from Ashgabat, Turkmenistan







STORIES FROM OUR PARTNERS